Weather History for Tinker AFB, OK

Change the Weather History Date:

Thursday, August 16, 2012

  Actual Average Record
Temperature  
Mean Temperature 86 °F -  
Max Temperature 95 °F 89 °F 103 °F (2011)
Min Temperature 77 °F 68 °F 62 °F (2013)
Cooling Degree Days 21    
Growing Degree Days 36 (Base 50)    
Moisture  
Dew Point 66 °F    
Average Humidity 54    
Maximum Humidity 82    
Minimum Humidity 30    
Precipitation  
Precipitation 0.00 in - - ()
Sea Level Pressure  
Sea Level Pressure 29.91 in    
Wind  
Wind Speed 12 mph (SSW)    
Max Wind Speed 22 mph    
Max Gust Speed 29 mph    
Visibility 10 miles    
Events      
Averages and records for this station are not official NWS values.
T = Trace of Precipitation, MM = Missing Value Source: NWS Daily Summary

Daily Weather History Graph

Daily Weather History Graph

Search for Another Location

Airport:

Trip Planner

Search our weather history database for the weather conditions in past years. The results will help you decide how hot, cold, wet, or windy it might be!

Date:

Astronomy

Aug. 16, 2012 Rise Set
Actual Time 6:50 AM CDT 8:16 PM CDT
Civil Twilight 6:23 AM CDT 8:43 PM CDT
Nautical Twilight 5:50 AM CDT 9:15 PM CDT
Astronomical Twilight 5:17 AM CDT 9:49 PM CDT
Moon 5:50 AM CDT (8/16) 7:28 PM CDT (8/16)
Length of Visible Light 14h 20m
Length of Day
13h 26m
Waning Crescent, 1% of the Moon is Illuminated
Aug 16
Waning Crescent
Aug 17
New
Aug 24
First Quarter
Aug 31
Full
Sep 8
Last Quarter

Hourly Weather History & Observations

Time (CDT) Temp. Heat Index Dew Point Humidity Pressure Visibility Wind Dir Wind Speed Gust Speed Precip Events Conditions
12:55 AM 79.9 °F - 69.8 °F 71% 29.87 in 10.0 mi SSE 9.2 mph - N/A   Partly Cloudy
1:55 AM 79.2 °F - 70.0 °F 73% 29.86 in 10.0 mi SSE 9.2 mph - N/A   Clear
2:55 AM 78.8 °F - 69.6 °F 73% 29.86 in 10.0 mi SSE 11.5 mph - N/A   Clear
3:55 AM 78.4 °F - 70.5 °F 77% 29.87 in 10.0 mi South 12.7 mph - N/A   Scattered Clouds
4:55 AM 77.9 °F - 71.4 °F 80% 29.87 in 10.0 mi SSE 9.2 mph - N/A   Partly Cloudy
5:55 AM 77.7 °F - 72.0 °F 82% 29.88 in 10.0 mi South 13.8 mph - N/A   Partly Cloudy
6:55 AM 77.2 °F - 71.4 °F 82% 29.88 in 10.0 mi South 10.4 mph - N/A   Partly Cloudy
7:55 AM 78.4 °F - 70.5 °F 77% 29.90 in 10.0 mi South 12.7 mph - N/A   Scattered Clouds
8:55 AM 80.2 °F 82.8 °F 67.8 °F 66% 29.91 in 10.0 mi South 15.0 mph 18.4 mph N/A   Clear
9:55 AM 81.7 °F 84.3 °F 67.6 °F 62% 29.94 in 10.0 mi South 15.0 mph - N/A   Partly Cloudy
10:55 AM 87.6 °F 89.4 °F 65.1 °F 47% 29.97 in 10.0 mi SW 21.9 mph - N/A   Clear
11:55 AM 89.4 °F 90.8 °F 64.2 °F 43% 29.96 in 10.0 mi SW 20.7 mph 28.8 mph N/A   Clear
12:55 PM 89.6 °F 91.1 °F 64.2 °F 43% 29.97 in 10.0 mi SW 21.9 mph 28.8 mph N/A   Clear
1:55 PM 92.3 °F 93.1 °F 62.4 °F 37% 29.95 in 10.0 mi WSW 19.6 mph 26.5 mph N/A   Clear
2:55 PM 93.7 °F 93.7 °F 60.3 °F 33% 29.94 in 10.0 mi West 12.7 mph 18.4 mph N/A   Clear
3:55 PM 94.6 °F 94.7 °F 60.3 °F 32% 29.92 in 10.0 mi West 12.7 mph 19.6 mph N/A   Clear
4:55 PM 95.4 °F 94.9 °F 59.0 °F 30% 29.90 in 10.0 mi SW 13.8 mph 21.9 mph N/A   Clear
5:55 PM 95.0 °F 94.4 °F 58.8 °F 30% 29.88 in 10.0 mi SW 12.7 mph - N/A   Clear
6:55 PM 93.7 °F 94.9 °F 63.1 °F 36% 29.87 in 10.0 mi WSW 8.1 mph 16.1 mph N/A   Clear
7:55 PM 91.8 °F 93.4 °F 64.4 °F 40% 29.88 in 10.0 mi WNW 3.5 mph - N/A   Mostly Cloudy
8:55 PM 89.1 °F 91.0 °F 65.1 °F 45% 29.91 in 10.0 mi North 6.9 mph - N/A   Mostly Cloudy
9:55 PM 87.1 °F 88.9 °F 65.3 °F 48% 29.94 in 10.0 mi Calm Calm - N/A   Mostly Cloudy
10:55 PM 84.7 °F 86.6 °F 65.1 °F 52% 29.95 in 10.0 mi North 6.9 mph - N/A   Partly Cloudy
11:55 PM 78.6 °F - 54.7 °F 43% 30.00 in 10.0 mi NNE 13.8 mph - N/A   Clear